Terminal Aerodrome Forecast
Issued by NWS Brownsville, TX

Home | Current Version | Previous Version | Text Only | Print | Product List | Glossary On
Versions: 1 2 3 4 5 6 7 8 9 10 11 12 13 14 15 16 17 18 19 20
000
FTUS44 KBRO 250529
TAFBRO
TAF
KBRO 250529Z 2506/2606 15010KT P6SM BKN025
     FM251500 17023G31KT P6SM BKN040=

USA.gov is the U.S. government's official web portal to all federal, state and local government web resources and services.